This is the latest recevied weather packets stored in our database for station/object K7ZQU-7. If no packets are shown the sender has not sent any weather packets the latest 10 day(s).
| Time | Temp. | Humidity | Pressure | Rain* | Wind** | Luminosity | Snow |
|---|---|---|---|---|---|---|---|
| 1777677642 | 19.44° C | 39% | 1014.7 hPa | 0 mm | 0 m/s | - | - |
| 1777677041 | 20° C | 38% | 1014.9 hPa | 0 mm | 2.24 m/s, 311° | - | - |
| 1777676742 | 20° C | 37% | 1014.9 hPa | 0 mm | 0.89 m/s, 328° | - | - |
| 1777676443 | 20° C | 37% | 1015 hPa | 0 mm | 1.79 m/s, 321° | - | - |
| 1777675845 | 20° C | 29% | 1015 hPa | 0 mm | 0 m/s | - | - |
| 1777675543 | 20° C | 28% | 1015 hPa | 0 mm | 0.45 m/s, 259° | - | - |
| 1777675244 | 20° C | 29% | 1015.1 hPa | 0 mm | 0.89 m/s, 226° | - | - |
| 1777674946 | 20° C | 27% | 1015.1 hPa | 0 mm | 1.79 m/s, 191° | - | - |
| 1777674648 | 19.44° C | 26% | 1015.1 hPa | 0 mm | 0.89 m/s, 340° | - | - |
| 1777674365 | 19.44° C | 29% | 1015.1 hPa | 0 mm | 0.89 m/s, 312° | - | - |
| 1777674047 | 19.44° C | 27% | 1015.2 hPa | 0 mm | 0.89 m/s, 135° | - | - |
| 1777673747 | 19.44° C | 28% | 1015.2 hPa | 0 mm | 0.89 m/s, 198° | - | - |
| 1777673448 | 19.44° C | 28% | 1015.3 hPa | 0 mm | 0 m/s | - | - |
| 1777672850 | 18.89° C | 27% | 1015.4 hPa | 0 mm | 0 m/s | - | - |
| 1777672549 | 18.89° C | 27% | 1015.6 hPa | 0 mm | 0 m/s | - | - |
| 1777672250 | 18.89° C | 27% | 1015.6 hPa | 0 mm | 0.89 m/s, 122° | - | - |
| 1777671951 | 19.44° C | 27% | 1015.6 hPa | 0 mm | 0 m/s | - | - |
| 1777671652 | 18.89° C | 27% | 1015.7 hPa | 0 mm | 0 m/s | - | - |
| 1777671353 | 18.89° C | 28% | 1015.7 hPa | 0 mm | 0.45 m/s, 204° | - | - |
| 1777671051 | 18.89° C | 27% | 1015.7 hPa | 0 mm | 0.45 m/s, 354° | - | - |
| 1777669855 | 19.44° C | 27% | 1015.8 hPa | 0 mm | 0 m/s | - | - |
| 1777669554 | 19.44° C | 26% | 1015.8 hPa | 0 mm | 0.89 m/s, 134° | - | - |
| 1777668956 | 18.89° C | 30% | 1015.9 hPa | 0 mm | 0 m/s | - | - |
| 1777668657 | 18.33° C | 29% | 1015.9 hPa | 0 mm | 0 m/s | - | - |
| 1777668056 | 18.33° C | 32% | 1015.9 hPa | 0 mm | 0 m/s | - | - |
* Rain latest hour (hover to see other rain measurements)
** Current wind speed in m/s (hover to see current wind gust speed)